Location: Unspecified
(50.7693°N, 0.0000°E)
Time: 04:39:50
(UTC+00:00)

A-11 Canister half - Pass Details

Date: 19 June 2019
Orbit: 1526 x 1683 km, 47.3° (Epoch: 16 August)

Event Time Altitude Azimuth Distance (km) Brightness Sun altitude
Rises 12:06:29 0° 287° (WNW) 4,682 11.5 62.6°
Reaches altitude 10° 12:10:05 10° 276° (W) 3,701 11.1 62.6°
Maximum altitude 12:17:25 27° 224° (SW) 2,622 11.1 62.5°
Drops below altitude 10° 12:24:51 10° 171° (S) 3,749 11.6 62.3°
Sets 12:28:32 0° 160° (SSE) 4,754 11.9 62.1°
